Location: Kapuskasing
(49.3803°N, 82.4001°W)
Time: 10:00:12
(UTC-04:00)

Envisat - Pass Details

Date: 16 March 2026
Orbit: 761 x 762 km, 98.4° (Epoch: 19 April)

Event Time Altitude Azimuth Distance (km) Brightness Sun altitude
Rises 03:06:15 0° 25° (NNE) 3,236 7.2 -38.8°
Reaches altitude 10° 03:09:05 10° 41° (NE) 2,305 6.2 -38.5°
Enters shadow 03:11:13 18° 63° (ENE) 1,791 5.3 -38.4°
